{"data":{"norad_id":61630,"epoch":"2026-05-25T04:33:34.671168Z","epoch_age_seconds":48713,"freshness":"FRESH","line1":"1 61630U 24191K   26145.18998462 -.00001238  00000+0 -35463-4 0  9998","line2":"2 61630  43.0005  82.6847 0000860 268.3076  91.7677 15.27585781 89239","mean_motion":15.27585781,"eccentricity":8.6e-5,"inclination_deg":43.0005,"raan_deg":82.6847,"arg_perigee_deg":268.3076,"mean_anomaly_deg":91.7677,"bstar":-3.5463e-5,"rev_number":8923,"period_min":94.266391970298,"perigee_km":482.44172518497,"apogee_km":483.62184621611,"semimajor_km":6861.1687857005,"source":"CELESTRAK","updated_at":"2026-05-25T13:38:19.408264Z"}}